Lakeland, FL (33801)

11:02 PM EST on February 10, 2016 (GMT -0500)
Turtle Rock | | Change Station
CLOSE
Current Station
Personal Weather Station
Location: Lakeland, FL
Elevation: 112 ft
Nearby Weather Stations
Active Advisory: Frost Advisory

Elev 112 ft 28.00 °N, 81.93 °W | Updated 22 seconds ago

Clear
Clear
42.6 °F
Feels Like 43 °F
N
0.0
Wind Variable Wind from SSE
Gusts 0.0 mph

Today
High -- | Low -- °F
--% Chance of Precip.
Yesterday
High -- | Low -- °F
Precip. -- in
Pressure 30.30 in
Visibility 10.0 miles
Clouds Clear
Windchill 43 °F
Dew Point 37 °F
Humidity 81%
Rainfall 0.00 in
Snow Depth Not available.
7:09 AM 6:14 PM
Waxing Crescent, 9% visible
METAR KLAL 110355Z AUTO 32003KT 10SM CLR 05/01 A3030 RMK AO2
Pressure 30.30 in
Visibility 10.0 miles
Clouds Clear
Windchill 43 °F
Dew Point 37 °F
Humidity 81%
Rainfall 0.00 in
Snow Depth Not available.
7:09 AM 6:14 PM
Waxing Crescent, 9% visible
METAR KLAL 110355Z AUTO 32003KT 10SM CLR 05/01 A3030 RMK AO2

10-Day Weather Forecast

Almanac

Astronomy

Feb. 10, 2016 Rise Set
Actual Time
Civil Twilight
Nautical Twilight
Astronomical Twilight
Moon
Length of Visible Light
Length of Day
Tomorrow will be .
, % of the Moon is Illuminated

Today's Extremes

State Highs State Lows

Community

WunderPhotos

Upload Photos

1,892,007 photos uploaded!

WunderBlog® & News

Nearby

Air Quality

  Air Quality AQ Index Pollutant
Not available.

Snow Depth

Station Depth Elevation

Earthquake Activity

City Distance Mag. Time & Date
Minimum magnitude displayed is 2.5.

Coastal Water Temperatures

Place Temperature

Stations

Nearby Weather Stations

Station Location Temp. Windchill Dew Point Humidity Wind Precip. Elev Updated Type
                   

Watches & Warnings

Frost Advisory
Issued: 9:49 PM EST Feb. 10, 2016 – National Weather Service

... Frost advisory remains in effect from 3 am to 9 am EST
Thursday...

* temperature... 33 to 36.

* Impacts... sensitive plants may be killed.

Precautionary/preparedness actions...

A frost advisory means that frost is possible. Sensitive outdoor
plants may be killed if left uncovered. Consider brining your
pets inside.